Weather in Tuzla

Bosnia and Herzegovina     44°32′04″N   18°41′32″E
temp.,
°C
wind,
m/s
gust,
m/s
humid.,
%
clouds,
%
prec.,
mm/h
press.,
hPa
HPBL,
m
17 september, fri
fri1723:00+19s226696 0.0 101514
02:00+20ssw1159100 0.0 101418
05:00+17s2265100 0.0 101213
08:00+20ssw125597 0.1 101290
11:00+28wsw69336 0.1 10112153
14:00+24nw8105956 0.8 1011940
17:00+22n556359 0.4 1011706
20:00+15nw2296100 2.3 101467
18 september, sat
sat1823:00+14nnw2396100 1.9 1015158
02:00+14sw1297100 4.4 1015115
05:00+14w1196100 1.1 101544
08:00+13wsw1196100 4.0 1015100
11:00+15se2384100 3.5 1016325
14:00+15ese2276100 3.6 1015434
17:00+17e236295 0.1 1014462
20:00+14se1184100 0.6 101424
19 september, sun
sun1923:00+13sse119382 0.9 101411
02:00+14w1195100 1.6 101413
05:00+14ssw1196100 0.6 101413
08:00+15nne009399 1.2 1013104
11:00+19e117650 0.3 1013643
14:00+24n125381 0.4 10111243
17:00+23nne2154100 0.1 1010941
20:00+17ene1193100 2.9 101114
20 september, mon
mon2023:00+15nnw1197100 3.1 101120
02:00+15wnw1198100 5.2 101158
05:00+14wnw3597100 2.2 1013350
08:00+14wnw129656 3.1 1014140
11:00+15nnw338999 1.3 1016573
14:00+15nnw228294 1.6 1016628
17:00+15n2275100 0.1 1016688
20:00+14ese1180100 0.1 101724
21 september, tue
tue2123:00+13w0084100 0.0 101813
02:00+13n118497 0.0 101818
05:00+13ne1186100 0.0 101831
08:00+13nne2282100 0.1 1020241
11:00+11ene2482100 0.3 1021448
14:00+11ne2488100 0.5 1023476
17:00+11nw1287100 0.1 1023312
20:00+10wsw1190100 0.1 102433